Location: Unspecified
(52.4292°N, 19.3359°E)
Time: 23:39:01
(UTC+02:00)

A-11 Canister half - Pass Details

Date: 26 May 2024
Orbit: 1515 x 1685 km, 47.2° (Epoch: 19 June)

Event Time Altitude Azimuth Distance (km) Brightness Sun altitude
Rises 07:48:41 0° 284° (WNW) 4,694 11.0 27.1°
Reaches altitude 10° 07:52:03 10° 276° (W) 3,696 10.5 27.6°
Maximum altitude 08:00:06 35° 216° (SW) 2,262 9.9 28.8°
Drops below altitude 10° 08:08:07 10° 155° (SSE) 3,676 11.5 30.0°
Sets 08:11:29 0° 147° (SSE) 4,666 12.0 30.6°
